GFSFLT1_500_spd_000.txt.gz
Wind_Speed
22 25 24 22 23 25 24 24 24 25 27 28 28 28 28 29 29 30 31 31 33 35 39 41 44 47 44 40 36 34 29 29 30
24 26 29 28 27 28 28 27 28 28 30 30 31 31 30 32 32 33 33 33 35 34 39 36 41 42 37 34 35 36 35 35 38
23 27 30 30 29 29 30 29 31 30 32 33 32 33 33 35 35 35 35 34 34 36 36 37 39 36 35 35 35 38 40 39 41
22 24 26 28 29 30 31 31 33 33 35 36 35 35 35 37 36 36 37 37 36 38 36 37 39 42 39 37 39 38 38 42 41
22 25 26 27 28 31 32 32 34 35 36 37 37 36 37 39 39 40 39 39 38 39 39 41 42 40 40 39 40 41 42 43 40
25 27 30 31 32 33 33 33 35 37 37 37 38 39 40 40 42 41 41 40 39 40 42 44 43 45 45 47 45 40 39 38 37
27 28 29 31 32 33 33 34 36 38 39 40 39 41 42 42 41 41 41 40 41 42 45 45 47 45 43 40 39 37 38 37 37
27 28 30 31 33 33 32 34 38 40 41 42 41 41 44 43 42 41 41 42 43 45 45 46 45 39 42 44 47 43 39 34 35
28 30 31 33 34 35 35 38 40 42 43 43 42 43 45 44 43 43 43 44 45 46 46 45 38 44 45 46 43 40 33 35 33
30 30 32 35 36 35 37 40 42 44 44 42 43 45 46 46 45 45 44 44 47 45 45 42 44 45 45 44 38 34 31 31 31
31 32 33 35 35 36 38 41 43 44 43 44 46 46 46 46 45 44 45 47 48 47 46 46 49 48 42 35 34 34 30 28 31
30 31 32 33 34 36 40 42 43 43 44 47 48 47 46 46 46 45 46 48 49 50 49 50 46 44 37 33 31 28 25 27 29
27 27 30 33 36 38 40 41 42 44 46 47 46 46 47 48 47 46 47 48 50 48 47 42 39 37 32 26 24 23 27 25 27
31 30 31 32 34 36 38 41 43 45 44 44 47 48 50 50 46 46 48 48 47 46 43 39 36 32 31 31 24 26 28 28 25
33 34 34 35 37 39 40 41 41 42 42 46 49 50 51 46 42 45 48 45 44 44 42 35 35 31 31 23 22 26 26 26 23
38 38 39 38 39 40 39 38 39 40 44 47 49 48 46 43 42 44 43 41 44 44 43 38 33 27 27 24 24 23 22 22 24
40 40 41 39 39 37 38 40 42 43 45 45 46 46 44 43 43 42 42 43 42 40 35 31 22 23 24 20 17 18 20 23 23
39 40 40 41 40 40 42 44 44 45 46 45 44 43 42 42 41 41 40 40 38 34 30 24 22 25 21 17 17 21 21 26 22
41 43 42 41 42 45 44 46 46 46 46 44 42 40 40 38 34 38 36 40 37 33 25 20 21 19 18 19 21 22 23 25 22
45 47 45 45 47 46 45 44 45 46 43 40 39 38 36 34 35 37 36 34 36 31 22 19 20 19 18 20 21 21 23 22 21

GFSFLT1_500_spd_006.txt.gz
Wind_Speed
29 25 25 18 21 22 19 24 27 27 27 25 25 25 25 27 29 29 30 31 34 35 36 36 36 36 37 37 37 37 40 40 40
34 33 18 24 27 31 23 23 27 29 27 28 27 26 27 28 29 32 34 34 35 36 37 37 38 39 39 38 39 39 42 42 41
23 25 34 23 26 31 21 21 26 27 27 27 30 29 29 30 30 32 34 35 36 37 37 38 39 39 38 39 39 41 42 42 42
24 24 28 33 22 29 21 19 22 26 29 30 33 33 34 34 35 36 38 36 36 37 36 38 40 40 39 41 41 43 43 44 46
28 20 23 28 24 30 25 23 27 27 31 32 34 35 36 35 37 39 39 38 37 37 37 38 40 41 42 42 43 42 44 47 49
35 37 26 24 25 31 31 27 30 30 31 33 34 36 37 37 38 38 38 37 38 38 39 40 42 43 43 43 43 43 47 48 51
26 30 41 37 30 35 35 30 28 29 30 33 34 36 37 37 37 37 37 38 40 40 41 44 44 44 43 43 43 46 47 48 50
29 37 40 41 37 33 38 31 29 30 31 33 37 37 40 37 37 37 39 40 40 42 45 47 47 45 44 44 46 47 45 45 45
39 41 36 34 37 34 36 34 30 30 31 33 38 39 38 42 39 38 41 42 43 47 49 50 50 47 43 44 44 44 46 44 42
40 39 34 35 32 34 37 37 33 32 33 36 37 40 40 41 40 42 44 45 47 50 52 54 51 46 46 45 41 44 43 43 39
46 31 27 25 27 28 34 33 32 31 33 34 36 39 41 42 43 45 45 48 51 52 52 52 53 52 39 48 44 43 42 42 36
43 26 24 24 24 25 30 29 31 30 31 33 36 39 41 43 45 45 47 51 53 53 52 54 49 44 48 49 43 38 40 41 35
33 29 27 28 30 30 30 31 33 31 32 34 37 40 42 44 47 48 51 54 55 53 52 52 48 47 47 45 41 38 40 28 20
33 32 33 32 31 33 32 33 34 32 34 36 39 42 44 48 50 52 53 54 53 53 49 47 45 48 44 39 41 36 35 29 35
42 32 31 32 35 36 36 36 36 35 36 38 40 42 47 50 52 54 55 54 54 52 49 45 45 45 39 38 38 37 33 30 25
49 47 37 36 38 39 38 38 39 38 38 38 41 44 48 50 51 52 53 54 56 52 46 44 44 41 39 36 38 34 33 24 33
47 49 42 40 42 38 40 47 47 43 38 38 37 38 41 51 51 53 55 57 60 47 43 44 42 41 40 37 36 32 24 32 26
39 35 33 26 42 44 46 59 39 53 38 38 39 39 50 50 53 54 58 52 51 38 46 47 43 40 39 37 38 31 28 26 21
39 34 47 44 47 43 41 42 27 44 49 48 54 50 56 56 59 57 57 50 42 53 50 46 41 39 38 37 35 31 31 28 24
47 45 48 47 44 44 46 49 59 44 63 64 60 58 62 62 58 58 53 49 45 43 43 41 41 41 37 36 34 32 34 36 24

GFSFLT1_500_spd_009.txt.gz
Wind_Speed
30 33 34 22 26 20 9 10 16 24 22 22 22 21 22 21 24 25 26 27 29 31 32 32 31 33 32 33 34 35 36 38 39
29 27 29 22 28 15 21 11 13 19 27 21 23 22 22 23 24 27 27 28 30 32 31 32 32 32 33 34 36 37 37 38 40
27 26 33 30 32 36 20 15 13 19 24 23 23 24 25 25 25 25 27 30 31 30 32 32 33 34 34 36 36 37 38 40 41
20 24 22 31 42 15 22 23 11 18 24 29 27 29 29 28 29 26 26 28 30 30 30 31 32 33 36 36 38 39 40 42 42
23 20 21 27 31 32 29 28 17 23 29 32 31 29 29 30 30 28 28 29 32 32 31 32 34 36 37 40 41 43 44 44 43
28 27 27 27 26 28 32 30 30 31 31 32 32 29 28 31 32 31 29 29 33 33 31 33 36 36 39 43 45 44 43 44 43
28 31 23 31 34 39 36 32 32 33 32 33 31 30 28 31 33 32 31 31 34 33 32 35 38 40 43 47 48 47 48 41 43
30 26 27 31 37 39 42 39 34 32 32 33 31 30 29 32 32 31 32 33 34 34 35 39 42 45 47 50 51 47 39 43 43
29 25 26 34 41 47 44 40 36 33 33 31 33 32 30 31 33 32 33 34 35 36 39 43 45 50 52 52 52 46 39 48 45
33 38 40 41 41 46 48 42 35 31 36 33 28 33 32 32 35 35 36 36 37 39 43 46 48 52 53 53 50 45 45 44 43
50 40 42 47 48 47 43 39 31 30 32 35 36 35 35 36 37 37 37 38 39 43 46 48 51 51 52 52 49 45 46 40 42
45 44 38 46 46 43 41 34 31 33 33 38 36 36 36 38 38 39 40 42 42 45 49 52 54 52 51 50 46 46 41 38 38
44 46 38 35 38 40 38 34 33 33 35 36 36 36 38 38 39 40 41 42 44 47 51 51 54 50 49 47 47 44 44 41 39
50 49 41 41 38 38 37 39 37 35 38 38 38 41 41 39 41 41 41 41 45 50 51 53 57 48 44 46 42 41 41 40 38
61 51 49 40 34 34 38 40 38 37 41 42 42 44 39 40 44 41 37 40 45 50 50 51 37 49 36 41 40 41 40 39 41
44 36 44 48 50 43 52 49 35 35 48 55 55 43 37 43 48 38 39 45 51 46 46 42 43 40 37 46 42 42 40 38 37
40 40 44 49 53 49 44 49 25 36 48 61 38 16 29 39 41 37 34 40 44 46 45 44 47 49 54 55 45 42 39 38 36
44 41 42 44 48 52 52 54 51 34 40 37 33 65 50 43 40 42 51 45 46 46 48 50 48 48 51 51 44 41 39 37 35
45 40 42 44 48 49 51 50 43 38 43 48 55 58 47 47 53 57 50 46 48 49 49 48 46 46 45 45 41 38 37 35 32
47 43 45 45 49 59 41 45 41 45 50 51 59 62 63 60 59 56 56 48 49 47 54 47 45 44 42 39 37 35 35 33 31

GFSFLT1_500_spd_015.txt.gz
Wind_Speed
5 0 8 10 7 8 12 13 12 16 20 18 17 17 17 19 20 18 20 23 26 24 25 28 30 30 29 27 25 25 27 31 32
6 4 5 9 7 7 18 13 14 14 17 19 22 20 20 24 23 23 24 24 24 28 26 28 31 31 30 28 28 28 30 31 33
9 10 10 5 7 6 6 10 6 9 15 20 22 24 25 29 29 25 26 27 26 27 29 30 31 30 29 28 28 30 32 33 35
12 16 6 6 8 5 4 1 4 9 14 20 23 26 29 31 30 31 30 30 29 28 30 33 30 29 27 29 31 34 35 36 36
12 10 10 12 9 10 9 7 8 9 14 20 23 23 26 28 29 31 33 33 31 28 30 32 30 29 29 30 33 35 38 38 39
22 22 21 17 13 12 11 12 13 21 22 26 30 31 29 30 30 31 35 34 33 30 32 31 31 31 32 34 35 37 39 40 40
23 24 20 20 19 17 18 15 18 27 25 27 35 35 36 34 33 35 37 37 36 33 35 34 34 34 36 38 38 40 41 43 42
24 21 22 21 26 33 24 26 28 25 22 31 40 42 44 38 33 35 36 39 37 34 41 39 41 37 36 41 42 40 43 48 48
28 23 24 29 35 37 33 28 32 31 35 41 42 43 42 54 38 35 38 39 33 38 48 45 41 36 38 42 42 37 43 45 50
32 29 30 34 37 35 35 35 40 36 34 36 37 44 42 46 59 44 36 50 42 45 51 54 39 39 42 44 42 40 45 46 44
36 31 34 35 37 40 42 44 48 39 34 37 46 48 46 45 37 40 43 46 45 49 49 46 49 41 46 44 43 41 44 43 37
34 36 37 41 41 42 47 48 45 38 36 44 47 46 46 45 47 46 45 46 47 55 53 54 50 43 47 49 41 42 37 43 42
38 42 39 40 44 48 46 36 41 38 46 49 48 49 48 52 48 45 48 46 51 54 55 52 54 45 53 49 42 39 42 42 46
41 40 44 48 48 43 43 47 53 46 44 48 44 43 48 44 42 49 47 48 51 50 55 43 34 47 52 37 33 39 41 41 43
48 48 50 52 46 48 45 47 41 38 40 43 46 45 43 39 40 35 40 41 41 40 54 37 30 41 47 46 39 42 41 42 44
47 48 52 47 49 46 45 32 39 42 38 43 46 45 42 38 38 43 45 39 48 50 30 30 38 31 37 44 41 41 44 45 47
55 49 52 52 54 47 39 39 46 47 43 44 43 41 43 44 41 43 41 44 51 55 52 46 39 34 38 43 42 43 43 43 40
57 53 49 56 48 40 43 43 44 47 45 44 44 42 44 45 44 46 48 55 49 47 55 49 45 39 36 34 37 39 39 36 35
45 34 35 41 43 46 45 45 44 45 43 46 47 50 50 47 48 42 48 48 44 47 44 46 45 41 35 36 39 38 35 32 32
30 30 34 36 42 43 42 45 46 47 47 49 51 54 54 52 50 47 41 46 48 45 47 45 41 35 37 38 37 35 32 31 29

GFSFLT1_500_spd_021.txt.gz
Wind_Speed
18 14 12 11 11 10 11 15 22 28 21 19 14 12 10 13 15 15 16 18 19 21 23 26 26 24 21 21 22 22 21 20 23
14 16 14 13 17 14 11 13 16 19 21 15 11 9 11 12 14 17 19 22 22 24 25 25 24 25 26 26 25 23 22 23 25
18 19 21 20 20 18 14 10 9 15 19 11 7 6 8 9 12 15 19 22 23 23 28 28 26 26 25 28 27 25 24 25 26
25 24 23 24 20 18 17 12 10 7 11 6 5 9 9 13 18 21 22 28 26 42 36 30 30 27 25 31 30 28 28 28 29
29 21 22 21 20 16 14 13 12 5 9 3 9 13 15 20 26 28 39 34 31 33 40 35 33 32 26 29 34 36 33 33 32
28 25 20 20 20 16 16 13 10 12 12 10 13 14 20 26 25 22 40 38 44 45 53 56 44 34 29 19 26 35 33 37 34
26 29 26 24 27 28 25 22 13 14 15 18 17 17 22 26 29 34 39 40 42 53 49 28 24 29 30 29 29 32 32 35 38
26 29 31 27 24 28 29 26 21 10 14 14 16 20 24 26 30 35 40 42 44 45 42 40 21 27 28 24 25 35 35 42 39
21 24 24 23 25 23 23 27 21 14 15 20 20 23 25 30 31 35 39 42 44 41 39 31 30 28 27 22 24 31 34 37 28
24 23 27 24 24 25 25 21 20 19 20 22 23 29 31 32 33 35 40 43 45 40 33 33 31 26 27 25 24 31 37 34 32
25 26 26 26 27 28 28 28 29 25 24 28 29 34 38 40 39 38 40 41 38 34 34 33 33 29 28 31 24 31 35 35 35
28 29 31 31 32 35 32 31 32 31 30 34 37 42 43 45 44 44 47 41 39 38 33 32 33 34 35 35 28 32 34 32 39
31 33 33 37 37 37 37 36 35 33 40 40 42 48 48 50 40 44 47 40 39 38 31 31 34 34 35 36 33 35 36 26 34
34 32 36 37 41 41 38 34 35 41 42 46 50 50 53 48 52 35 34 40 40 38 36 36 36 34 33 36 38 39 38 37 40
38 38 36 36 37 35 36 34 40 45 47 51 54 52 52 57 58 45 38 43 41 42 40 39 39 38 37 33 43 43 42 38 31
36 35 37 40 35 36 40 42 44 49 54 58 58 52 53 52 55 41 42 49 48 42 42 40 43 43 42 36 46 45 42 43 38
38 41 39 37 41 40 45 47 47 58 60 56 58 60 51 50 48 47 45 44 44 43 42 43 42 43 44 43 45 43 43 40 40
42 39 40 38 40 45 48 51 50 49 51 49 58 47 41 45 45 45 43 46 46 47 46 45 44 44 41 43 41 42 42 43 42
46 47 47 45 45 51 55 54 48 46 48 52 50 42 47 44 42 46 48 50 51 51 52 50 48 44 42 38 40 40 39 37 39
45 50 50 49 51 57 44 41 35 35 39 43 41 42 45 46 46 48 51 53 55 55 52 49 44 41 39 39 36 36 36 38 39

GFSFLT1_500_spd_024.txt.gz
Wind_Speed
23 22 17 12 14 10 8 9 11 16 19 24 24 19 17 16 17 16 17 18 19 19 22 24 23 25 28 25 24 23 23 21 21
23 19 16 14 16 12 9 9 12 16 17 18 18 17 16 17 16 11 11 14 21 15 23 24 26 30 30 25 27 26 26 24 23
22 18 17 18 19 17 14 13 12 11 11 14 17 15 14 12 10 8 14 18 14 18 30 29 37 39 34 33 30 29 29 26 25
24 25 23 21 20 23 22 15 12 10 11 14 14 11 12 13 13 15 19 18 33 28 29 29 39 47 39 39 37 29 31 32 32
26 31 32 27 26 24 23 15 12 13 12 15 15 14 14 15 17 20 22 22 25 29 32 32 35 43 38 31 23 24 22 25 30
25 28 32 31 25 21 23 20 14 13 12 15 18 17 15 15 18 21 23 24 28 29 33 32 35 39 12 21 16 20 35 31 27
17 24 28 29 24 20 25 25 25 22 20 19 21 21 21 21 21 22 26 26 31 30 33 35 30 23 21 23 21 23 28 25 29
26 20 29 28 26 26 27 29 28 27 27 25 25 22 18 18 21 26 30 31 33 35 35 34 33 27 24 27 25 25 25 29 28
32 25 30 35 31 31 30 30 28 30 29 31 29 22 22 22 26 30 35 37 36 37 37 32 28 28 26 28 25 21 22 24 28
33 26 29 34 32 30 31 26 28 29 32 34 32 25 25 24 30 34 38 40 41 39 40 36 33 29 29 28 27 27 28 32 31
38 32 35 35 32 30 31 32 34 35 33 33 27 27 28 29 31 36 40 43 45 40 47 41 36 30 30 28 28 32 31 30 30
35 36 39 36 32 31 34 34 34 38 33 33 34 29 34 34 35 38 45 47 39 39 41 35 35 35 31 34 30 34 35 36 34
38 38 40 41 35 34 38 38 38 35 34 36 38 33 36 39 41 44 49 54 39 44 39 39 39 40 37 36 34 32 37 39 36
42 39 42 40 36 35 39 40 39 40 41 41 39 40 40 45 49 51 47 47 47 41 39 39 41 45 41 39 37 36 37 42 41
43 41 43 42 36 36 39 40 42 44 44 42 42 43 46 50 52 53 49 49 49 48 38 42 44 41 41 40 40 40 38 39 45
37 40 42 39 36 39 42 44 48 49 54 45 44 46 50 56 51 57 48 50 46 43 43 42 42 42 44 43 44 44 42 40 43
37 39 41 39 40 40 44 46 46 53 45 46 50 51 53 59 61 57 46 43 44 48 46 43 44 44 46 47 46 45 43 46 43
40 43 46 45 41 44 46 49 49 47 49 51 54 55 57 58 57 55 45 44 44 46 48 47 46 48 48 46 45 43 41 43 43
42 47 44 39 43 44 44 45 47 50 54 60 56 56 51 49 46 46 42 44 49 50 50 50 50 49 47 44 41 39 40 42 43
45 41 44 49 50 36 44 50 52 56 60 60 56 53 41 43 47 47 49 53 54 53 54 53 52 51 47 42 40 37 37 38 41

GFSFLT1_500_spd_030.txt.gz
Wind_Speed
21 24 20 21 18 19 17 15 10 10 10 11 13 17 19 17 15 14 9 8 3 8 8 7 12 16 20 22 27 26 30 31 31
33 37 24 20 23 18 18 15 11 11 8 9 12 17 19 20 18 13 7 4 4 5 3 12 15 18 21 24 22 22 27 29 34
30 23 21 29 24 18 19 15 15 12 11 9 10 11 13 14 14 10 6 6 8 11 13 10 16 19 20 24 21 21 26 23 33
25 30 30 35 30 17 20 18 14 13 11 11 11 12 12 14 13 9 7 9 13 12 12 14 14 16 20 21 21 29 27 29 30
33 33 23 28 32 26 20 17 13 13 15 16 12 11 10 10 10 9 10 12 11 8 11 17 21 21 23 25 23 24 25 30 32
19 24 30 34 34 26 18 18 16 16 18 18 17 12 11 7 11 13 15 13 5 9 13 17 21 25 29 29 28 31 32 31 33
30 32 37 36 37 28 21 23 19 23 21 21 21 19 16 12 11 16 14 10 7 12 14 17 21 24 27 34 37 37 40 33 34
44 45 46 43 41 37 39 43 26 27 26 20 20 19 17 12 13 18 16 14 16 14 19 23 25 27 33 37 39 36 39 34 34
39 34 41 50 48 42 40 40 36 32 31 30 26 22 18 16 16 19 20 20 20 19 21 25 28 31 34 38 43 45 39 39 36
30 37 37 47 44 40 35 35 36 36 32 31 29 27 23 21 17 18 22 21 20 20 23 27 29 33 37 42 45 47 44 43 42
50 43 45 50 52 41 37 39 39 37 33 33 31 30 27 24 19 19 22 24 25 25 26 29 33 36 41 46 51 52 53 52 46
50 62 41 48 45 45 40 41 43 45 39 36 35 32 32 24 17 20 22 25 27 32 33 34 38 41 42 46 52 57 57 54 46
60 58 59 58 55 48 46 44 43 46 44 38 37 33 34 29 23 22 25 29 32 35 36 41 40 43 47 50 54 54 58 56 48
54 72 71 69 65 59 53 52 51 44 43 41 37 38 36 32 27 29 32 35 39 41 42 44 44 49 52 55 57 57 58 59 48
43 44 49 60 62 52 45 50 57 43 43 43 41 39 38 37 37 39 39 43 48 53 48 41 45 50 55 59 65 65 58 50 43
58 47 45 44 50 48 43 50 49 50 47 47 46 42 40 42 44 44 45 47 54 57 53 48 50 54 61 64 59 55 47 45 46
47 47 51 51 45 45 47 47 43 46 49 46 46 43 43 45 47 48 50 53 55 53 56 56 56 60 62 61 51 48 50 49 50
39 41 49 51 48 48 47 47 44 46 45 44 45 43 44 47 51 55 57 57 55 57 56 55 58 60 63 53 52 54 53 49 49
34 37 40 45 46 48 44 42 45 44 43 40 45 47 46 48 55 56 54 54 51 53 54 55 56 64 57 53 52 52 49 47 47
31 31 38 42 42 41 42 40 45 41 41 45 48 49 49 45 47 43 51 54 49 54 62 62 50 52 47 50 52 51 49 48 45

GFSFLT1_500_spd_033.txt.gz
Wind_Speed
29 32 18 18 12 10 13 13 11 10 12 11 13 16 15 15 13 14 11 5 2 1 0 3 9 11 16 18 20 18 18 27 26
32 30 29 21 13 8 9 12 11 11 8 6 7 8 12 14 16 15 11 6 7 1 6 8 10 12 14 17 18 21 21 24 25
36 37 26 23 16 13 7 13 15 13 7 8 7 5 5 8 10 9 10 10 9 4 6 11 9 13 14 15 18 20 20 24 29
32 25 28 15 17 28 17 14 17 14 8 8 8 6 2 4 4 7 9 9 7 9 7 8 11 13 14 15 18 21 25 29 33
35 38 30 14 26 26 15 17 15 15 12 9 10 9 4 4 4 7 9 8 10 10 9 6 9 13 14 16 19 27 31 31 32
32 18 18 29 30 27 16 18 20 21 13 12 13 13 11 7 8 8 9 10 11 13 9 7 9 10 14 18 22 25 30 36 34
31 31 32 38 36 30 26 23 20 24 21 16 15 15 16 14 10 13 15 14 12 15 10 11 10 10 14 19 22 26 32 33 34
32 25 31 38 40 39 38 30 25 18 23 19 21 17 18 16 13 17 20 16 17 19 19 15 17 16 17 19 24 28 33 36 38
32 31 44 35 39 39 39 40 38 37 33 25 28 25 19 19 17 16 21 20 19 21 19 16 15 17 18 22 27 31 34 39 41
43 37 32 38 44 46 44 43 44 46 38 28 30 29 26 25 23 18 19 22 22 23 21 21 19 18 21 25 31 33 39 42 45
47 45 47 39 40 41 46 51 51 48 45 35 31 32 32 29 26 21 20 23 22 22 25 21 22 24 27 30 33 34 39 45 51
49 43 53 41 43 49 39 45 45 50 45 40 38 34 35 31 29 25 21 25 24 24 23 22 25 30 32 36 36 38 43 48 53
58 52 54 54 49 45 54 47 41 43 44 43 39 38 39 38 33 29 24 25 26 27 27 26 30 36 39 39 33 42 42 50 54
64 63 60 54 60 50 55 50 52 55 50 49 42 43 42 42 38 35 30 27 32 32 32 33 37 42 47 52 43 34 41 50 58
75 74 71 71 67 64 57 54 54 58 47 47 46 48 46 43 43 39 34 33 37 39 33 37 42 45 48 48 51 45 49 56 58
44 48 66 80 78 75 71 61 62 66 69 66 62 51 51 45 44 42 37 38 42 39 39 42 46 49 48 51 46 49 50 57 60
46 49 51 53 54 54 52 60 75 74 76 74 71 53 52 53 47 45 42 42 42 43 44 47 48 54 50 51 45 49 50 57 54
47 46 50 46 48 53 49 52 51 51 64 69 63 57 53 53 51 47 43 43 44 44 47 51 54 53 54 50 48 53 58 54 46
42 44 41 39 43 46 49 57 53 51 51 58 51 47 48 47 48 46 41 44 46 46 52 55 51 42 54 58 52 61 58 50 46
48 46 42 44 42 43 47 51 54 53 47 46 45 44 48 46 45 41 42 44 48 51 54 37 46 48 50 58 45 44 44 45 43